DW5852 Weather Reports


time (UTC)temp
F
wind
direction
speed
knots
gust
knots
rain 1hr
in
rain 24hr
in
rain mn
in
humidity
%
barometer
mb
20260508044211 57 263 0.0 0.9 0.00 0.00 0.00 14 1026.4
20260508043711 57 221 0.0 0.9 0.00 0.00 0.00 14 1026.3
20260508043214 57 256 0.0 0.0 0.00 0.00 0.00 14 1026.3
20260508042714 57 256 0.0 0.9 0.00 0.00 0.00 13 1026.3
20260508042215 58 271 0.0 0.0 0.00 0.00 0.00 13 1026.3
20260508041711 58 234 0.0 1.7 0.00 0.00 0.00 13 1026.2
20260508041214 58 250 0.0 0.9 0.00 0.00 0.00 13 1026.1
20260508040714 58 226 0.0 2.6 0.00 0.00 0.00 13 1026.1
20260508040214 58 308 0.0 1.7 0.00 0.00 0.00 13 1026.0
20260508035711 58 277 0.0 2.6 0.00 0.00 0.00 13 1026.0
20260508035212 58 263 0.0 0.9 0.00 0.00 0.00 13 1025.9
20260508034711 58 319 0.0 1.7 0.00 0.00 0.00 13 1025.9
20260508034214 58 256 0.0 1.7 0.00 0.00 0.00 13 1025.9
20260508033712 59 258 0.0 1.7 0.00 0.00 0.00 13 1025.8
20260508033214 59 268 0.0 1.7 0.00 0.00 0.00 13 1025.7
20260508032711 59 179 0.0 1.7 0.00 0.00 0.00 13 1025.5
20260508032211 59 232 0.0 3.5 0.00 0.00 0.00 12 1025.4
20260508031711 59 250 0.0 3.5 0.00 0.00 0.00 13 1025.2
20260508031214 59 269 0.0 5.2 0.00 0.00 0.00 13 1025.1
20260508030714 59 261 0.0 2.6 0.00 0.00 0.00 13 1025.1
20260508030211 59 337 0.0 0.0 0.00 0.00 0.00 14 1025.0
20260508025714 59 258 0.0 0.0 0.00 0.00 0.00 14 1024.9
20260508025211 59 302 0.0 0.0 0.00 0.00 0.00 14 1024.9
20260508024711 59 314 0.0 0.0 0.00 0.00 0.00 14 1024.8
20260508024212 60 241 0.0 0.0 0.00 0.00 0.00 14 1024.7
20260508023712 60 250 0.0 0.0 0.00 0.00 0.00 14 1024.6
20260508023211 60 235 0.0 0.9 0.00 0.00 0.00 14 1024.5
20260508022714 60 248 0.0 0.9 0.00 0.00 0.00 14 1024.3
20260508022211 60 236 0.0 0.0 0.00 0.00 0.00 15 1024.2
20260508021711 59 240 0.0 0.0 0.00 0.00 0.00 15 1024.1
20260508021211 59 248 0.0 0.0 0.00 0.00 0.00 16 1024.0
20260508020714 59 245 0.0 0.0 0.00 0.00 0.00 16 1024.0
20260508020214 60 245 0.0 0.0 0.00 0.00 0.00 15 1023.8
20260508015715 60 245 0.0 0.0 0.00 0.00 0.00 15 1023.7
20260508015211 61 245 0.0 0.0 0.00 0.00 0.00 15 1023.6
20260508014711 62 245 0.0 0.0 0.00 0.00 0.00 14 1023.4
20260508014214 63 294 0.0 0.0 0.00 0.00 0.00 13 1023.3
20260508013714 64 94 0.0 0.0 0.00 0.00 0.00 14 1023.1
20260508013214 65 94 0.0 0.0 0.00 0.00 0.00 12 1023.0
20260508012711 65 93 0.0 0.0 0.00 0.00 0.00 12 1022.8
20260508012211 65 80 0.0 0.0 0.00 0.00 0.00 11 1022.6
20260508011714 65 93 0.0 0.0 0.00 0.00 0.00 11 1022.5
20260508011214 66 86 0.0 0.0 0.00 0.00 0.00 11 1022.4
20260508010711 66 162 0.0 0.0 0.00 0.00 0.00 11 1022.4
20260508010214 66 93 0.0 0.0 0.00 0.00 0.00 11 1022.3
20260508005711 66 111 0.0 0.0 0.00 0.00 0.00 10 1022.2
20260508005214 67 68 0.0 0.0 0.00 0.00 0.00 11 1022.1
20260508004714 67 117 0.0 0.9 0.00 0.00 0.00 11 1022.0
20260508004214 68 114 0.0 0.0 0.00 0.00 0.00 10 1022.0
20260508003711 68 188 0.0 0.0 0.00 0.00 0.00 11 1022.0
20260508003211 68 94 0.0 0.0 0.00 0.00 0.00 11 1021.8
20260508002711 68 68 0.0 0.0 0.00 0.00 0.00 10 1021.7
20260508002211 69 148 0.0 0.0 0.00 0.00 0.00 11 1021.6
20260508001711 69 139 0.0 0.0 0.00 0.00 0.00 11 1021.5
20260508001211 68 91 0.0 0.0 0.00 0.00 0.00 11 1021.4
20260508000711 69 139 0.0 0.0 0.00 0.00 0.00 11 1021.4
20260508000212 69 173 0.0 0.9 0.00 0.00 0.00 11 1021.3
20260507235714 69 120 0.0 0.9 0.00 0.00 0.00 11 1021.2
20260507235211 69 197 0.0 0.0 0.00 0.00 0.00 11 1021.1
20260507234714 69 191 0.0 0.9 0.00 0.00 0.00 11 1021.1
20260507234212 69 191 0.0 0.0 0.00 0.00 0.00 12 1020.9
20260507233211 69 134 0.0 0.0 0.00 0.00 0.00 13 1020.8
20260507232714 69 128 0.0 0.0 0.00 0.00 0.00 13 1020.7
20260507232214 69 246 0.0 0.0 0.00 0.00 0.00 14 1020.6
20260507231711 69 222 0.0 0.0 0.00 0.00 0.00 14 1020.6
20260507231211 68 183 0.0 0.0 0.00 0.00 0.00 15 1020.5
20260507230711 68 172 0.0 0.0 0.00 0.00 0.00 15 1020.4
20260507230211 68 193 0.0 2.6 0.00 0.00 0.00 16 1020.3
20260507225714 68 131 0.0 7.8 0.00 0.00 0.00 16 1020.2
20260507225211 68 146 0.0 0.0 0.00 0.00 0.00 17 1020.2
20260507224714 68 101 0.0 0.0 0.00 0.00 0.00 17 1020.0
20260507224214 67 210 0.0 3.5 0.00 0.00 0.00 17 1020.0
20260507223711 68 191 0.0 2.6 0.00 0.00 0.00 17 1019.9
20260507223211 68 158 0.0 6.1 0.00 0.00 0.00 17 1019.8
20260507222714 68 155 0.0 0.0 0.00 0.00 0.00 18 1019.7
20260507222214 68 170 0.0 0.9 0.00 0.00 0.00 18 1019.7
20260507221714 68 205 0.0 0.0 0.00 0.00 0.00 18 1019.6
20260507221212 68 207 0.0 2.6 0.00 0.00 0.00 20 1019.6
20260507220714 68 203 0.0 0.0 0.00 0.00 0.00 19 1019.6
20260507220211 68 169 0.0 0.0 0.00 0.00 0.00 20 1019.5
20260507215711 68 218 0.0 0.0 0.00 0.00 0.00 21 1019.5
20260507215214 68 166 0.0 0.0 0.00 0.00 0.00 20 1019.5
20260507214714 68 260 0.0 0.0 0.00 0.00 0.00 22 1019.4
20260507214215 68 169 0.0 0.9 0.00 0.00 0.00 21 1019.5
20260507213714 68 150 0.0 0.0 0.00 0.00 0.00 22 1019.4
20260507213214 67 148 0.0 0.9 0.00 0.00 0.00 22 1019.4
20260507212711 67 173 0.0 7.0 0.00 0.00 0.00 22 1019.4
20260507212214 67 187 0.0 0.9 0.00 0.00 0.00 21 1019.4
20260507211714 68 160 0.0 0.9 0.00 0.00 0.00 21 1019.5
20260507211211 68 147 0.0 0.0 0.00 0.00 0.00 21 1019.4
20260507210714 67 95 0.0 0.0 0.00 0.00 0.00 20 1019.4
20260507210211 68 180 0.0 0.0 0.00 0.00 0.00 19 1019.3
20260507205714 68 160 0.0 0.0 0.00 0.00 0.00 20 1019.2
20260507205211 67 146 0.0 0.0 0.00 0.00 0.00 21 1019.2
20260507204711 67 253 0.0 0.0 0.00 0.00 0.00 21 1019.2
20260507204214 66 166 0.0 0.0 0.00 0.00 0.00 21 1019.2
20260507203714 66 139 0.0 6.1 0.00 0.00 0.00 20 1019.2
20260507203211 67 176 0.0 6.1 0.00 0.00 0.00 21 1019.1
20260507202711 66 263 0.0 0.0 0.00 0.00 0.00 21 1019.0
20260507202214 64 174 0.0 0.9 0.00 0.00 0.00 22 1019.1
20260507201711 63 120 0.0 1.7 0.00 0.00 0.00 22 1019.0
20260507201211 64 117 0.0 8.7 0.00 0.00 0.00 21 1019.0
20260507200714 65 58 0.0 0.0 0.00 0.00 0.00 21 1018.9
20260507200214 65 143 0.0 0.0 0.00 0.00 0.00 21 1018.8
20260507195714 65 239 0.0 0.0 0.00 0.00 0.00 22 1018.8
20260507195211 64 104 0.0 0.0 0.00 0.00 0.00 22 1018.7
20260507194711 64 258 0.0 0.0 0.00 0.00 0.00 22 1018.8
20260507194211 64 162 0.0 0.0 0.00 0.00 0.00 23 1018.7
20260507193711 64 302 0.0 0.0 0.00 0.00 0.00 23 1018.7
20260507193211 62 262 0.0 0.0 0.00 0.00 0.00 24 1018.7
20260507192711 62 239 0.0 0.0 0.00 0.00 0.00 24 1018.7
20260507192211 61 94 0.0 0.0 0.00 0.00 0.00 25 1018.7
20260507191711 60 250 0.0 0.0 0.00 0.00 0.00 25 1018.6
20260507191214 60 55 0.0 4.3 0.00 0.00 0.00 25 1018.7
20260507190714 60 135 0.0 0.9 0.00 0.00 0.00 25 1018.5
20260507190214 61 108 0.0 0.0 0.00 0.00 0.00 25 1018.5
20260507185714 61 172 0.0 0.9 0.00 0.00 0.00 24 1018.6
20260507185214 61 116 0.0 0.0 0.00 0.00 0.00 24 1018.4
20260507184714 60 52 0.0 0.0 0.00 0.00 0.00 26 1018.5
20260507184214 60 78 0.0 0.9 0.00 0.00 0.00 25 1018.5
20260507183714 60 310 0.0 0.0 0.00 0.00 0.00 26 1018.5
20260507183211 60 330 0.0 0.0 0.00 0.00 0.00 26 1018.4
20260507182711 60 302 0.0 0.0 0.00 0.00 0.00 26 1018.3
20260507182211 59 319 0.0 0.0 0.00 0.00 0.00 27 1018.4
20260507181714 59 67 0.0 0.9 0.00 0.00 0.00 26 1018.4
20260507181211 58 308 0.0 0.0 0.00 0.00 0.00 27 1018.4
20260507180711 57 77 0.0 0.0 0.00 0.00 0.00 28 1018.4
20260507180211 57 90 0.0 0.9 0.00 0.00 0.00 29 1018.4
20260507175714 57 325 0.0 0.0 0.00 0.00 0.00 29 1018.4
20260507175214 56 79 0.0 0.0 0.00 0.00 0.00 29 1018.4
20260507174714 55 24 0.0 9.6 0.00 0.00 0.00 29 1018.4
20260507174211 55 166 0.0 0.0 0.00 0.00 0.00 31 1018.4
20260507173711 54 68 0.0 0.9 0.00 0.00 0.00 30 1018.4
20260507173211 54 77 0.0 0.9 0.00 0.00 0.00 31 1018.4
20260507172714 53 163 0.0 7.0 0.00 0.00 0.00 31 1018.4
20260507172211 53 27 0.0 6.1 0.00 0.00 0.00 31 1018.4
20260507171714 54 47 0.9 2.6 0.00 0.00 0.00 31 1018.5
20260507171214 54 148 0.0 4.3 0.00 0.00 0.00 32 1018.4
20260507170714 53 33 0.0 0.9 0.00 0.00 0.00 32 1018.4
20260507170211 53 325 0.0 0.9 0.00 0.00 0.00 32 1018.5
20260507165711 52 77 0.0 0.9 0.00 0.00 0.00 33 1018.4
20260507165214 52 55 0.0 6.1 0.00 0.00 0.00 33 1018.4
20260507164714 52 61 1.7 1.7 0.00 0.00 0.00 34 1018.4
20260507164214 51 71 0.0 6.1 0.00 0.00 0.00 35 1018.3
20260507163714 50 73 0.0 6.1 0.00 0.00 0.00 35 1018.4
20260507163214 50 95 0.0 3.5 0.00 0.00 0.00 36 1018.4
20260507162711 50 270 0.0 1.7 0.00 0.00 0.00 35 1018.3
20260507162214 50 16 0.0 3.5 0.00 0.00 0.00 35 1018.5
20260507161714 50 98 0.0 0.9 0.00 0.00 0.00 36 1018.5
20260507161214 49 302 0.0 0.0 0.00 0.00 0.00 37 1018.5
20260507160711 48 0 0.0 5.2 0.00 0.00 0.00 38 1018.5
20260507160211 48 128 0.0 1.7 0.00 0.00 0.00 39 1018.4
20260507155711 47 46 0.0 12.2 0.00 0.00 0.00 39 1018.5
20260507155214 47 27 0.0 2.6 0.00 0.00 0.00 38 1018.4
20260507154714 47 35 0.9 2.6 0.00 0.00 0.00 38 1018.4
20260507154214 48 71 0.0 5.2 0.00 0.00 0.00 38 1018.5
20260507153711 47 65 0.0 4.3 0.00 0.00 0.00 39 1018.5
20260507153214 47 61 0.0 2.6 0.00 0.00 0.00 38 1018.3
20260507152714 47 62 0.0 2.6 0.00 0.00 0.00 38 1018.3
20260507152214 47 58 0.0 8.7 0.00 0.00 0.00 39 1018.4
20260507151714 47 39 0.0 10.4 0.00 0.00 0.00 39 1018.4
20260507151214 46 359 7.0 7.0 0.00 0.00 0.00 39 1018.4
20260507150711 46 344 2.6 4.3 0.00 0.00 0.00 40 1018.5
20260507150211 46 96 0.0 10.4 0.00 0.00 0.00 43 1018.5
20260507145714 46 23 0.0 11.3 0.00 0.00 0.00 44 1018.5
20260507145211 46 38 0.0 3.5 0.00 0.00 0.00 45 1018.6
20260507144711 46 86 0.0 4.3 0.00 0.00 0.00 43 1018.6
20260507144211 45 68 0.0 3.5 0.00 0.00 0.00 45 1018.6
20260507143711 45 50 0.0 4.3 0.00 0.00 0.00 45 1018.6
20260507143214 45 349 0.0 5.2 0.00 0.00 0.00 46 1018.6
20260507142711 44 58 0.0 2.6 0.00 0.00 0.00 47 1018.6
20260507142211 44 6 0.0 0.0 0.00 0.00 0.00 50 1018.6
20260507141714 44 96 0.0 0.0 0.00 0.00 0.00 53 1018.7
20260507141211 43 79 0.0 0.0 0.00 0.00 0.00 54 1018.8
20260507140711 42 104 0.0 0.0 0.00 0.00 0.00 55 1018.9
20260507140214 42 10 0.0 0.0 0.00 0.00 0.00 55 1019.0
20260507135711 42 20 0.0 0.0 0.00 0.00 0.00 56 1019.0
20260507135211 41 84 0.0 0.0 0.00 0.00 0.00 54 1019.0
20260507134714 42 34 0.0 0.0 0.00 0.00 0.00 53 1019.2
20260507134214 41 27 0.0 0.0 0.00 0.00 0.00 54 1019.2
20260507133714 40 60 0.0 0.0 0.00 0.00 0.00 55 1019.2
20260507133211 40 53 0.0 0.0 0.00 0.00 0.00 55 1019.3
20260507132711 39 63 0.0 0.0 0.00 0.00 0.00 56 1019.2
20260507132214 39 49 0.0 0.0 0.00 0.00 0.00 55 1019.3
20260507131714 39 68 0.0 0.0 0.00 0.00 0.00 56 1019.4
20260507131211 39 55 0.0 0.0 0.00 0.00 0.00 57 1019.4
20260507130714 40 89 0.0 0.0 0.00 0.00 0.00 56 1019.3
20260507130214 40 89 0.0 0.0 0.00 0.00 0.00 57 1019.3
20260507125711 39 89 0.0 0.0 0.00 0.00 0.00 58 1019.4
20260507125211 39 89 0.0 0.0 0.00 0.00 0.00 59 1019.3
20260507124714 38 89 0.0 0.0 0.00 0.00 0.00 60 1019.4
20260507124211 38 89 0.0 0.0 0.00 0.00 0.00 60 1019.5
20260507123711 37 89 0.0 0.0 0.00 0.00 0.00 60 1019.5
20260507123211 38 34 0.0 0.0 0.00 0.00 0.00 58 1019.5
20260507122714 37 46 0.0 0.0 0.00 0.00 0.00 58 1019.5
20260507122211 36 49 0.0 0.0 0.00 0.00 0.00 59 1019.6
20260507121711 36 338 0.0 0.0 0.00 0.00 0.00 59 1019.5
20260507121211 36 337 0.0 0.0 0.00 0.00 0.00 59 1019.6
20260507120714 36 325 0.0 0.0 0.00 0.00 0.00 59 1019.7
20260507120211 36 316 0.0 0.0 0.00 0.00 0.00 60 1019.8
20260507115714 36 316 0.0 0.0 0.00 0.00 0.00 59 1019.9
20260507115214 36 315 0.0 0.0 0.00 0.00 0.00 59 1019.9
20260507114711 36 335 0.0 0.0 0.00 0.00 0.00 60 1020.0
20260507114211 36 305 0.0 0.9 0.00 0.00 0.00 60 1020.1
20260507113711 36 332 0.0 0.0 0.00 0.00 0.00 60 1020.1
20260507113214 36 320 0.0 0.0 0.00 0.00 0.00 60 1020.2
20260507112711 37 316 0.0 0.0 0.00 0.00 0.00 60 1020.4
20260507112211 36 322 0.0 0.0 0.00 0.00 0.00 61 1020.4
20260507111714 36 340 0.0 0.0 0.00 0.00 0.00 61 1020.4
20260507111211 36 330 0.0 0.0 0.00 0.00 0.00 61 1020.4
20260507110714 36 305 0.0 0.0 0.00 0.00 0.00 60 1020.4
20260507110211 36 315 0.0 0.0 0.00 0.00 0.00 61 1020.5
20260507105711 36 329 0.0 0.0 0.00 0.00 0.00 62 1020.5
20260507105214 36 321 0.0 0.0 0.00 0.00 0.00 62 1020.5
20260507104711 36 322 0.0 0.0 0.00 0.00 0.00 62 1020.6
20260507104211 36 322 0.0 0.0 0.00 0.00 0.00 61 1020.8
20260507103711 36 321 0.0 0.0 0.00 0.00 0.00 61 1020.8
20260507103211 36 72 0.0 0.0 0.00 0.00 0.00 61 1020.9
20260507102714 37 72 0.0 0.0 0.00 0.00 0.00 60 1021.1
20260507102211 37 68 0.0 0.0 0.00 0.00 0.00 58 1021.1
20260507101714 38 343 0.0 0.0 0.00 0.00 0.00 57 1021.2
20260507101214 38 343 0.0 0.0 0.00 0.00 0.00 58 1021.2
20260507100711 38 335 0.0 0.0 0.00 0.00 0.00 57 1021.2
20260507100211 38 330 0.0 0.0 0.00 0.00 0.00 57 1021.2
20260507095714 38 316 0.0 0.0 0.00 0.00 0.00 58 1021.3
20260507095211 38 335 0.0 0.0 0.00 0.00 0.00 57 1021.3
20260507094714 38 345 0.0 0.0 0.00 0.00 0.00 57 1021.3
20260507094211 38 312 0.0 0.0 0.00 0.00 0.00 57 1021.3
20260507093714 38 313 0.0 0.0 0.00 0.00 0.00 57 1021.4
20260507093211 38 345 0.0 0.0 0.00 0.00 0.00 56 1021.5
20260507092711 38 310 0.0 0.9 0.00 0.00 0.00 57 1021.4
20260507092214 38 322 0.0 0.0 0.00 0.00 0.00 57 1021.6
20260507091711 38 335 0.0 0.0 0.00 0.00 0.00 58 1021.6
20260507091214 37 312 0.0 0.0 0.00 0.00 0.00 59 1021.7
20260507090711 37 350 0.0 0.0 0.00 0.00 0.00 59 1021.8
20260507090211 37 298 0.0 0.0 0.00 0.00 0.00 60 1021.8
20260507085714 37 322 0.0 0.0 0.00 0.00 0.00 60 1021.8
20260507085214 37 335 0.0 0.0 0.00 0.00 0.00 60 1021.9
20260507084714 38 344 0.0 0.0 0.00 0.00 0.00 60 1022.0
20260507084214 38 23 0.0 0.0 0.00 0.00 0.00 59 1022.0
20260507083711 38 317 0.0 0.9 0.00 0.00 0.00 59 1022.2
20260507083214 38 328 0.0 0.0 0.00 0.00 0.00 59 1022.3
20260507082711 38 335 0.0 0.0 0.00 0.00 0.00 59 1022.2
20260507082214 38 320 0.0 0.0 0.00 0.00 0.00 59 1022.4
20260507081711 38 335 0.0 0.0 0.00 0.00 0.00 60 1022.5
20260507081211 37 325 0.0 0.0 0.00 0.00 0.00 61 1022.5
20260507080714 37 325 0.0 0.0 0.00 0.00 0.00 61 1022.5
20260507080214 37 249 0.0 0.0 0.00 0.00 0.00 61 1022.5
20260507075711 37 310 0.0 0.0 0.00 0.00 0.00 62 1022.6
20260507075214 37 305 0.0 0.0 0.00 0.00 0.00 63 1022.7
20260507074711 38 314 0.0 0.0 0.00 0.00 0.00 63 1022.9
20260507074211 38 314 0.0 0.0 0.00 0.00 0.00 62 1023.0
20260507073711 39 314 0.0 0.0 0.00 0.00 0.00 63 1023.0
20260507073211 38 37 0.0 0.0 0.00 0.00 0.00 64 1022.9
20260507072714 38 305 0.0 0.0 0.00 0.00 0.00 65 1023.0
20260507072214 37 308 0.0 0.0 0.00 0.00 0.00 66 1023.0
20260507071714 37 348 0.0 0.0 0.00 0.00 0.00 68 1023.0
20260507071214 37 349 0.0 0.0 0.00 0.00 0.00 69 1023.1
20260507070714 37 5 0.0 0.0 0.00 0.00 0.00 68 1023.1
20260507070211 38 11 0.0 0.0 0.00 0.00 0.00 67 1023.0
20260507065714 38 12 0.0 0.0 0.00 0.00 0.00 67 1022.9
20260507065214 38 15 0.0 0.0 0.00 0.00 0.00 67 1022.9
20260507064711 38 6 0.0 0.0 0.00 0.00 0.00 66 1023.0
20260507064211 38 305 0.0 0.0 0.00 0.00 0.00 66 1023.1
20260507063711 38 15 0.0 0.0 0.00 0.00 0.00 66 1023.0
20260507063211 38 332 0.0 0.0 0.00 0.00 0.00 66 1023.1
20260507062711 39 331 0.0 0.9 0.00 0.00 0.00 65 1023.1
20260507062211 39 335 0.0 0.0 0.00 0.00 0.00 63 1023.2
20260507061714 40 10 0.0 1.7 0.00 0.00 0.00 63 1023.1
20260507061214 40 30 0.9 0.9 0.00 0.00 0.00 62 1023.3
20260507060714 40 18 0.0 0.9 0.00 0.00 0.00 62 1023.3
20260507060211 40 11 0.0 0.9 0.00 0.00 0.00 62 1023.3
20260507055711 40 58 0.0 0.0 0.00 0.00 0.00 62 1023.3
20260507055211 39 30 0.0 0.9 0.00 0.00 0.00 63 1023.3
20260507054714 39 314 0.0 0.0 0.00 0.00 0.00 62 1023.3
20260507054214 40 314 0.0 0.0 0.00 0.00 0.00 60 1023.3
20260507053711 40 313 0.0 0.0 0.00 0.00 0.00 59 1023.3
20260507053211 40 314 0.0 0.0 0.00 0.00 0.00 60 1023.3
20260507052711 40 300 0.0 0.0 0.00 0.00 0.00 59 1023.3
20260507052214 40 90 0.0 0.0 0.00 0.00 0.00 59 1023.3
20260507051711 40 318 0.0 0.0 0.00 0.00 0.00 57 1023.4
20260507051214 40 317 0.0 0.0 0.00 0.00 0.00 58 1023.4
20260507050714 40 36 0.0 0.0 0.00 0.00 0.00 56 1023.5
20260507050214 40 343 0.0 0.0 0.00 0.00 0.00 59 1023.5
20260507045711 39 359 0.0 0.0 0.00 0.00 0.00 59 1023.5
20260507045214 39 8 0.0 0.0 0.00 0.00 0.00 61 1023.5
20260507044711 39 8 0.0 0.0 0.00 0.00 0.00 67 1023.5